| time (UTC) | temp C | wind direction | speed KPH | gust KPH | rain 1hr cm | rain 24hr cm | rain mn cm | humidity % | barometer mb |
| 20260509004515 | 4 | 30 | 3.2 | 6.4 | 0.00 | 0.00 | 0.00 | 89 | 1019.9 |
| 20260509003013 | 4 | 20 | 1.6 | 4.8 | 0.00 | 0.00 | 0.00 | 89 | 1020.0 |
| 20260509001513 | 5 | 13 | 3.2 | 6.4 | 0.00 | 0.00 | 0.00 | 88 | 1020.0 |
| 20260509000011 | 5 | 5 | 3.2 | 4.8 | 0.00 | 0.00 | 0.00 | 87 | 1020.1 |
| 20260508234509 | 5 | 5 | 1.6 | 6.4 | 0.00 | 0.00 | 0.00 | 87 | 1020.1 |
| 20260508233008 | 5 | 11 | 1.6 | 6.4 | 0.00 | 0.00 | 0.00 | 86 | 1020.1 |
| 20260508231505 | 5 | 23 | 3.2 | 6.4 | 0.00 | 0.00 | 0.00 | 84 | 1020.2 |
| 20260508230002 | 5 | 32 | 3.2 | 6.4 | 0.00 | 0.00 | 0.00 | 82 | 1020.2 |
| 20260508224605 | 6 | 67 | 3.2 | 4.8 | 0.00 | 0.00 | 0.00 | 81 | 1020.3 |
| 20260508223057 | 6 | 67 | 3.2 | 8.0 | 0.00 | 0.00 | 0.00 | 82 | 1020.3 |
| 20260508221555 | 6 | 67 | 4.8 | 8.0 | 0.00 | 0.00 | 0.00 | 84 | 1020.4 |
| 20260508220118 | 7 | 67 | 3.2 | 6.4 | 0.00 | 0.00 | 0.00 | 84 | 1020.4 |
| 20260508214556 | 7 | 65 | 4.8 | 8.0 | 0.00 | 0.00 | 0.00 | 84 | 1020.3 |
| 20260508213054 | 7 | 70 | 3.2 | 8.0 | 0.00 | 0.00 | 0.00 | 83 | 1020.4 |
| 20260508211552 | 7 | 78 | 4.8 | 8.0 | 0.00 | 0.00 | 0.00 | 83 | 1020.4 |
| 20260508210050 | 7 | 63 | 3.2 | 6.4 | 0.00 | 0.00 | 0.00 | 80 | 1020.3 |
| 20260508204600 | 7 | 72 | 3.2 | 8.0 | 0.00 | 0.00 | 0.00 | 79 | 1020.3 |
| 20260508203049 | 7 | 81 | 3.2 | 9.7 | 0.00 | 0.00 | 0.00 | 76 | 1020.2 |
| 20260508201548 | 7 | 69 | 4.8 | 14.5 | 0.00 | 0.00 | 0.00 | 75 | 1020.1 |
| 20260508200046 | 8 | 63 | 0.0 | 4.8 | 0.00 | 0.00 | 0.00 | 73 | 1020.1 |
| 20260508194544 | 8 | 63 | 3.2 | 9.7 | 0.00 | 0.00 | 0.00 | 72 | 1019.9 |
| 20260508193048 | 8 | 76 | 1.6 | 12.9 | 0.00 | 0.00 | 0.00 | 68 | 1019.7 |
| 20260508191544 | 8 | 65 | 6.4 | 17.7 | 0.00 | 0.00 | 0.00 | 69 | 1019.6 |
| 20260508190045 | 9 | 78 | 6.4 | 16.1 | 0.00 | 0.00 | 0.00 | 68 | 1019.5 |
| 20260508184546 | 9 | 69 | 3.2 | 12.9 | 0.00 | 0.00 | 0.00 | 66 | 1019.5 |
| 20260508183043 | 10 | 85 | 4.8 | 16.1 | 0.00 | 0.00 | 0.00 | 66 | 1019.3 |
| 20260508181557 | 10 | 86 | 6.4 | 19.3 | 0.00 | 0.00 | 0.00 | 65 | 1019.3 |
| 20260508180038 | 10 | 74 | 9.7 | 20.9 | 0.00 | 0.00 | 0.00 | 65 | 1019.3 |
| 20260508174543 | 11 | 74 | 11.3 | 24.1 | 0.00 | 0.00 | 0.00 | 64 | 1019.2 |
| 20260508173035 | 11 | 53 | 9.7 | 27.4 | 0.00 | 0.00 | 0.00 | 63 | 1019.0 |
| 20260508171535 | 11 | 52 | 12.9 | 27.4 | 0.00 | 0.00 | 0.00 | 62 | 1019.0 |
| 20260508170034 | 12 | 73 | 11.3 | 24.1 | 0.00 | 0.00 | 0.00 | 61 | 1019.0 |
| 20260508164535 | 12 | 57 | 14.5 | 24.1 | 0.00 | 0.00 | 0.00 | 57 | 1018.9 |
| 20260508163038 | 12 | 92 | 11.3 | 27.4 | 0.00 | 0.00 | 0.00 | 52 | 1018.9 |
| 20260508161536 | 12 | 101 | 17.7 | 27.4 | 0.00 | 0.00 | 0.00 | 48 | 1018.8 |
| 20260508160032 | 12 | 71 | 17.7 | 29.0 | 0.00 | 0.00 | 0.00 | 42 | 1018.8 |
| 20260508154530 | 12 | 67 | 16.1 | 27.4 | 0.00 | 0.00 | 0.00 | 40 | 1018.8 |
| 20260508153030 | 12 | 66 | 14.5 | 30.6 | 0.00 | 0.00 | 0.00 | 41 | 1018.8 |
| 20260508151529 | 13 | 70 | 20.9 | 29.0 | 0.00 | 0.00 | 0.00 | 38 | 1018.7 |
| 20260508150033 | 13 | 65 | 16.1 | 29.0 | 0.00 | 0.00 | 0.00 | 42 | 1018.7 |
| 20260508144527 | 13 | 115 | 17.7 | 30.6 | 0.00 | 0.00 | 0.00 | 42 | 1018.7 |
| 20260508143027 | 13 | 82 | 16.1 | 29.0 | 0.00 | 0.00 | 0.00 | 39 | 1018.8 |
| 20260508141521 | 13 | 97 | 14.5 | 30.6 | 0.00 | 0.00 | 0.00 | 42 | 1018.9 |
| 20260508140025 | 13 | 68 | 19.3 | 32.2 | 0.00 | 0.00 | 0.00 | 40 | 1019.0 |
| 20260508134520 | 13 | 86 | 19.3 | 32.2 | 0.00 | 0.00 | 0.00 | 40 | 1019.2 |
| 20260508133008 | 13 | 81 | 17.7 | 37.0 | 0.00 | 0.00 | 0.00 | 40 | 1019.2 |
| 20260508131503 | 14 | 78 | 16.1 | 29.0 | 0.00 | 0.00 | 0.00 | 40 | 1019.3 |
| 20260508130100 | 13 | 81 | 19.3 | 33.8 | 0.00 | 0.00 | 0.00 | 40 | 1019.4 |
| 20260508124558 | 13 | 64 | 20.9 | 30.6 | 0.00 | 0.00 | 0.00 | 40 | 1019.3 |
| 20260508123110 | 13 | 63 | 19.3 | 29.0 | 0.00 | 0.00 | 0.00 | 40 | 1019.4 |
| 20260508121558 | 13 | 82 | 17.7 | 33.8 | 0.00 | 0.00 | 0.00 | 44 | 1019.5 |
| 20260508120055 | 13 | 55 | 16.1 | 29.0 | 0.00 | 0.00 | 0.00 | 45 | 1019.4 |
| 20260508114554 | 15 | 39 | 14.5 | 27.4 | 0.00 | 0.00 | 0.00 | 43 | 1019.4 |
| 20260508113101 | 13 | 74 | 17.7 | 29.0 | 0.00 | 0.00 | 0.00 | 40 | 1019.5 |
| 20260508111552 | 13 | 92 | 16.1 | 32.2 | 0.00 | 0.00 | 0.00 | 41 | 1019.4 |
| 20260508110051 | 14 | 63 | 16.1 | 27.4 | 0.00 | 0.00 | 0.00 | 40 | 1019.3 |
| 20260508104549 | 14 | 77 | 14.5 | 30.6 | 0.00 | 0.00 | 0.00 | 40 | 1019.4 |
| 20260508103049 | 13 | 13 | 11.3 | 29.0 | 0.00 | 0.00 | 0.00 | 47 | 1019.3 |
| 20260508101544 | 13 | 90 | 16.1 | 30.6 | 0.00 | 0.00 | 0.00 | 43 | 1019.3 |
| 20260508100042 | 13 | 101 | 20.9 | 29.0 | 0.00 | 0.00 | 0.00 | 41 | 1019.4 |
| 20260508094558 | 13 | 65 | 14.5 | 27.4 | 0.00 | 0.00 | 0.00 | 44 | 1019.2 |
| 20260508093036 | 13 | 105 | 14.5 | 27.4 | 0.00 | 0.00 | 0.00 | 47 | 1019.4 |
| 20260508091539 | 13 | 115 | 14.5 | 20.9 | 0.00 | 0.00 | 0.00 | 44 | 1019.3 |
| 20260508090029 | 13 | 90 | 14.5 | 25.7 | 0.00 | 0.00 | 0.00 | 36 | 1019.3 |
| 20260508084524 | 12 | 98 | 12.9 | 24.1 | 0.00 | 0.00 | 0.00 | 46 | 1019.3 |
| 20260508083020 | 12 | 108 | 12.9 | 20.9 | 0.00 | 0.00 | 0.00 | 47 | 1019.3 |
| 20260508081543 | 12 | 117 | 14.5 | 22.5 | 0.00 | 0.00 | 0.00 | 47 | 1019.2 |
| 20260508080013 | 12 | 115 | 12.9 | 20.9 | 0.00 | 0.00 | 0.00 | 52 | 1019.1 |
| 20260508074509 | 12 | 72 | 9.7 | 20.9 | 0.00 | 0.00 | 0.00 | 51 | 1019.0 |
| 20260508073005 | 12 | 136 | 8.0 | 16.1 | 0.00 | 0.00 | 0.00 | 54 | 1018.8 |
| 20260508071502 | 12 | 96 | 11.3 | 16.1 | 0.00 | 0.00 | 0.00 | 58 | 1018.7 |
| 20260508070057 | 12 | 139 | 9.7 | 16.1 | 0.00 | 0.00 | 0.00 | 60 | 1018.6 |
| 20260508064554 | 11 | 119 | 9.7 | 17.7 | 0.00 | 0.00 | 0.00 | 65 | 1018.5 |
| 20260508063056 | 11 | 150 | 6.4 | 14.5 | 0.00 | 0.00 | 0.00 | 74 | 1018.3 |
| 20260508061551 | 11 | 154 | 6.4 | 14.5 | 0.00 | 0.00 | 0.00 | 77 | 1018.2 |
| 20260508060039 | 11 | 128 | 6.4 | 9.7 | 0.00 | 0.00 | 0.00 | 78 | 1018.1 |
| 20260508054534 | 10 | 95 | 4.8 | 9.7 | 0.00 | 0.00 | 0.00 | 76 | 1018.0 |
| 20260508053030 | 8 | 94 | 3.2 | 6.4 | 0.00 | 0.00 | 0.00 | 80 | 1017.9 |
| 20260508051527 | 8 | 194 | 0.0 | 1.6 | 0.00 | 0.00 | 0.00 | 85 | 1017.9 |
| 20260508050021 | 6 | 194 | 0.0 | 0.0 | 0.00 | 0.00 | 0.00 | 86 | 1017.8 |
| 20260508044521 | 5 | 194 | 0.0 | 1.6 | 0.00 | 0.00 | 0.00 | 87 | 1017.7 |
| 20260508043014 | 4 | 194 | 0.0 | 0.0 | 0.00 | 0.00 | 0.00 | 90 | 1017.7 |
| 20260508041511 | 3 | 194 | 0.0 | 0.0 | 0.00 | 0.00 | 0.00 | 89 | 1017.6 |
| 20260508040008 | 2 | 194 | 0.0 | 0.0 | 0.00 | 0.00 | 0.00 | 89 | 1017.5 |
| 20260508034504 | 2 | 194 | 0.0 | 0.0 | 0.00 | 0.00 | 0.00 | 89 | 1017.4 |
| 20260508033002 | 2 | 194 | 0.0 | 0.0 | 0.00 | 0.00 | 0.00 | 88 | 1017.3 |
| 20260508031602 | 2 | 194 | 0.0 | 0.0 | 0.00 | 0.00 | 0.00 | 88 | 1017.2 |
| 20260508030103 | 2 | 194 | 0.0 | 1.6 | 0.00 | 0.00 | 0.00 | 88 | 1017.1 |
| 20260508024557 | 2 | 194 | 0.0 | 3.2 | 0.00 | 0.00 | 0.00 | 88 | 1017.0 |
| 20260508023054 | 3 | 194 | 0.0 | 0.0 | 0.00 | 0.00 | 0.00 | 88 | 1016.9 |
| 20260508021556 | 3 | 194 | 0.0 | 0.0 | 0.00 | 0.00 | 0.00 | 88 | 1017.0 |
| 20260508020059 | 3 | 194 | 1.6 | 3.2 | 0.00 | 0.00 | 0.00 | 85 | 1017.0 |
| 20260508014553 | 3 | 194 | 1.6 | 3.2 | 0.00 | 0.00 | 0.00 | 85 | 1016.9 |
| 20260508013049 | 3 | 194 | 1.6 | 3.2 | 0.00 | 0.00 | 0.00 | 85 | 1016.9 |
| 20260508011546 | 3 | 194 | 0.0 | 0.0 | 0.00 | 0.00 | 0.00 | 85 | 1016.9 |
| 20260508010045 | 3 | 194 | 0.0 | 0.0 | 0.00 | 0.00 | 0.00 | 84 | 1017.0 |